Weather History for Meadville, PA

Change the Weather History Date:

Sunday, February 10, 2013

  Actual Average Record
Temperature  
Mean Temperature 31 °F -  
Max Temperature 45 °F 30 °F 52 °F (1966)
Min Temperature 17 °F 9 °F -12 °F (1951)
Degree Days  
Heating Degree Days 34    
Moisture  
Dew Point 14 °F    
Average Humidity 51    
Maximum Humidity 74    
Minimum Humidity 27    
Precipitation  
Precipitation 0.00 in - - ()
Sea Level Pressure  
Sea Level Pressure 30.18 in    
Wind  
Wind Speed 3 mph (SE)    
Max Wind Speed 8 mph    
Max Gust Speed -    
Visibility 10 miles    
Events      
Averages and records for this station are not official NWS values.
T = Trace of Precipitation, MM = Missing Value Source: NWS Daily Summary

Daily Weather History Graph

Daily Weather History Graph

Search for Another Location

Airport:

Trip Planner

Search our weather history database for the weather conditions in past years. The results will help you decide how hot, cold, wet, or windy it might be!

Date:

Astronomy

Feb. 10, 2013 Rise Set
Actual Time 7:22 AM EST 5:48 PM EST
Civil Twilight 6:53 AM EST 6:17 PM EST
Nautical Twilight 6:20 AM EST 6:49 PM EST
Astronomical Twilight 5:48 AM EST 7:22 PM EST
Moon 7:10 AM EST (2/10) 6:38 PM EST (2/10)
Length of Visible Light 11h 23m
Length of Day
10h 26m
New Moon, 0% of the Moon is Illuminated
Feb 10
New Moon
Feb 17
First Quarter
Feb 25
Full
Mar 4
Last Quarter
Mar 11
New

Hourly Weather History & Observations

Time (EST) Temp. Windchill Dew Point Humidity Pressure Visibility Wind Dir Wind Speed Gust Speed Precip Events Conditions
12:53 AM 17.1 °F - 9.0 °F 71% 30.36 in 10.0 mi Calm Calm - N/A   Clear
1:53 AM 17.1 °F - 10.0 °F 74% 30.36 in 10.0 mi Calm Calm - N/A   Clear
2:53 AM 18.0 °F 12.7 °F 10.0 °F 71% 30.34 in 10.0 mi ESE 3.5 mph - N/A   Clear
3:53 AM 19.0 °F 13.9 °F 10.0 °F 68% 30.32 in 10.0 mi Variable 3.5 mph - N/A   Clear
4:53 AM 18.0 °F 12.7 °F 10.0 °F 71% 30.31 in 10.0 mi Variable 3.5 mph - N/A   Clear
5:53 AM 18.0 °F 11.1 °F 10.0 °F 71% 30.31 in 10.0 mi Variable 4.6 mph - N/A   Clear
6:53 AM 19.0 °F 13.9 °F 10.0 °F 68% 30.32 in 10.0 mi Variable 3.5 mph - N/A   Clear
7:53 AM 19.9 °F 14.9 °F 10.9 °F 68% 30.32 in 10.0 mi Variable 3.5 mph - N/A   Clear
8:53 AM 23.0 °F 15.8 °F 12.0 °F 63% 30.30 in 10.0 mi Variable 5.8 mph - N/A   Clear
9:53 AM 27.0 °F 20.5 °F 12.0 °F 53% 30.27 in 10.0 mi Variable 5.8 mph - N/A   Clear
10:53 AM 30.9 °F 26.2 °F 10.9 °F 43% 30.23 in 10.0 mi ESE 4.6 mph - N/A   Clear
11:53 AM 35.1 °F 31.0 °F 10.9 °F 37% 30.24 in 10.0 mi Variable 4.6 mph - N/A   Partly Cloudy
12:53 PM 39.9 °F 36.7 °F 12.0 °F 32% 30.20 in 10.0 mi Variable 4.6 mph - N/A   Scattered Clouds
1:53 PM 44.1 °F 40.1 °F 12.0 °F 27% 30.13 in 10.0 mi Variable 6.9 mph - N/A   Partly Cloudy
2:53 PM 45.0 °F - 14.0 °F 29% 30.12 in 10.0 mi Calm Calm - N/A   Mostly Cloudy
3:53 PM 44.1 °F - 16.0 °F 32% 30.10 in 10.0 mi Calm Calm - N/A   Overcast
4:53 PM 43.0 °F 39.5 °F 16.0 °F 34% 30.09 in 10.0 mi Variable 5.8 mph - N/A   Overcast
5:53 PM 42.1 °F 39.2 °F 17.1 °F 37% 30.07 in 10.0 mi Variable 4.6 mph - N/A   Overcast
6:53 PM 42.1 °F 37.1 °F 19.0 °F 40% 30.04 in 10.0 mi SE 8.1 mph - N/A   Overcast
7:53 PM 39.9 °F 35.1 °F 19.0 °F 43% 30.04 in 10.0 mi SE 6.9 mph - N/A   Overcast
8:53 PM 39.0 °F 35.7 °F 19.9 °F 46% 30.02 in 10.0 mi Variable 4.6 mph - N/A   Overcast
9:53 PM 39.0 °F 34.0 °F 21.0 °F 49% 29.99 in 10.0 mi Variable 6.9 mph - N/A   Mostly Cloudy
10:53 PM 39.0 °F 35.7 °F 21.0 °F 49% 29.95 in 10.0 mi Variable 4.6 mph - N/A   Overcast
11:53 PM 39.0 °F 33.4 °F 21.0 °F 49% 29.90 in 10.0 mi SE 8.1 mph - N/A   Overcast